Weather History for KUNI - October, 2013

Change the Weather History Date:

Thursday, October 17, 2013

  Actual Average (KPKB) Record (KPKB)
Temperature  
Mean Temperature 55 °F 55 °F  
Max Temperature 60 °F 66 °F 88 °F (1928)
Min Temperature 50 °F 44 °F 28 °F (1991)
Degree Days  
Heating Degree Days 10 10  
Cooling Degree Days 0 0  
Growing Degree Days 5 (Base 50)    
Moisture  
Dew Point 50 °F    
Average Humidity 90    
Maximum Humidity 95    
Minimum Humidity 85    
Precipitation  
Precipitation 0.00 in 0.09 in 1.45 in (2006)
Sea Level Pressure  
Sea Level Pressure 29.91 in    
Wind  
Wind Speed 3 mph (WNW)    
Max Wind Speed 8 mph    
Max Gust Speed 10 mph    
Visibility 9 miles    
Events Rain    
T = Trace of Precipitation, MM = Missing Value Source: NWS Daily Summary

Daily Weather History Graph

Daily Weather History Graph

Search for Another Location

Airport or City:

Trip Planner

Search our weather history database for the weather conditions in past years. The results will help you decide how hot, cold, wet, or windy it might be!

Date:

Astronomy

Oct. 17, 2013 Rise Set
Actual Time 7:40 AM EDT 6:46 PM EDT
Civil Twilight 7:13 AM EDT 7:13 PM EDT
Nautical Twilight 6:42 AM EDT 7:44 PM EDT
Astronomical Twilight 6:11 AM EDT 8:15 PM EDT
Moon 6:00 PM EDT (10/17) 6:12 AM EDT (10/17)
Length of Visible Light 12h 00m
Length of Day
11h 05m
Waxing Gibbous, 98% of the Moon is Illuminated
Oct 17
Waxing Gibbous
Oct 18
Full
Oct 26
Last Quarter
Nov 3
New
Nov 10
First Quarter

Hourly Weather History & Observations

Time (EDT) Temp. Dew Point Humidity Pressure Visibility Wind Dir Wind Speed Gust Speed Precip Events Conditions
12:15 AM 60.1 °F 58.1 °F 93% 29.94 in 10.0 mi Calm Calm - N/A   Overcast
12:35 AM 60.1 °F 58.1 °F 93% 29.94 in 10.0 mi WSW 3.5 mph - N/A   Overcast
12:55 AM 59.9 °F 58.1 °F 94% 29.94 in 10.0 mi WSW 3.5 mph - N/A   Overcast
1:15 AM 59.9 °F 57.9 °F 93% 29.94 in 10.0 mi Calm Calm - N/A   Overcast
1:35 AM 59.2 °F 57.2 °F 93% 29.93 in 10.0 mi WNW 3.5 mph - N/A   Scattered Clouds
1:55 AM 58.5 °F 55.0 °F 88% 29.93 in 10.0 mi Calm Calm - N/A   Scattered Clouds
2:15 AM 57.6 °F 53.8 °F 87% 29.93 in 10.0 mi Calm Calm - N/A   Scattered Clouds
2:35 AM 57.2 °F 53.4 °F 87% 29.93 in 10.0 mi Calm Calm - N/A   Mostly Cloudy
2:55 AM 56.5 °F 53.1 °F 88% 29.93 in 10.0 mi Calm Calm - N/A   Mostly Cloudy
3:15 AM 55.9 °F 51.8 °F 86% 29.93 in 10.0 mi Calm Calm - N/A   Mostly Cloudy
3:35 AM 55.4 °F 50.9 °F 85% 29.93 in 10.0 mi WNW 3.5 mph - N/A   Overcast
3:55 AM 54.7 °F 50.5 °F 86% 29.93 in 10.0 mi NW 3.5 mph - N/A   Overcast
4:15 AM 53.6 °F 49.6 °F 86% 29.92 in 10.0 mi North 4.6 mph - N/A   Mostly Cloudy
4:35 AM 53.1 °F 49.3 °F 87% 29.93 in 10.0 mi NNW 3.5 mph - N/A   Mostly Cloudy
4:55 AM 52.7 °F 49.1 °F 88% 29.92 in 10.0 mi North 4.6 mph - N/A   Overcast
5:15 AM 52.3 °F 48.7 °F 88% 29.92 in 10.0 mi North 3.5 mph - N/A   Overcast
5:35 AM 52.0 °F 48.2 °F 87% 29.92 in 10.0 mi North 3.5 mph - N/A   Overcast
5:55 AM 51.4 °F 47.8 °F 87% 29.92 in 10.0 mi North 4.6 mph - N/A Rain Light Rain
6:15 AM 51.4 °F 48.2 °F 89% 29.92 in 10.0 mi North 3.5 mph - N/A   Overcast
6:35 AM 51.1 °F 47.8 °F 89% 29.92 in 10.0 mi North 3.5 mph - N/A Rain Light Rain
6:55 AM 50.9 °F 47.8 °F 89% 29.91 in 10.0 mi NNE 3.5 mph - N/A Rain Light Rain
7:15 AM 50.9 °F 47.7 °F 89% 29.92 in 10.0 mi Calm Calm - N/A   Overcast
7:35 AM 50.9 °F 47.8 °F 89% 29.93 in 10.0 mi Calm Calm - N/A Rain Light Rain
7:55 AM 50.2 °F 47.7 °F 91% 29.91 in 5.0 mi NNE 3.5 mph - N/A Rain Rain
8:15 AM 50.0 °F 48.0 °F 93% 29.91 in 7.0 mi NNE 4.6 mph - N/A Rain Light Rain
8:35 AM 50.0 °F 48.2 °F 94% 29.91 in 7.0 mi ENE 6.9 mph - N/A Rain Light Rain
8:55 AM 50.2 °F 48.2 °F 93% 29.91 in 7.0 mi NE 5.8 mph - N/A   Drizzle
9:35 AM 50.5 °F 48.4 °F 92% 29.91 in 10.0 mi ENE 3.5 mph - N/A Rain Light Rain
9:55 AM 50.5 °F 48.6 °F 93% 29.91 in 10.0 mi Calm Calm - N/A Rain Light Rain
10:15 AM 50.7 °F 48.7 °F 93% 29.90 in 10.0 mi NE 4.6 mph - N/A Rain Light Rain
10:35 AM 50.7 °F 48.9 °F 94% 29.90 in 4.0 mi Calm Calm - N/A Rain Rain
10:55 AM 51.4 °F 49.6 °F 94% 29.88 in 10.0 mi North 3.5 mph - N/A   Overcast
11:15 AM 51.3 °F 49.5 °F 94% 29.89 in 10.0 mi Calm Calm - N/A   Overcast
11:35 AM 51.4 °F 49.5 °F 93% 29.87 in 4.0 mi NE 4.6 mph - N/A Rain Light Rain
11:55 AM 51.6 °F 49.8 °F 94% 29.86 in 4.0 mi NNW 4.6 mph - N/A Rain Light Rain
12:15 PM 51.8 °F 50.0 °F 94% 29.86 in 3.0 mi Calm Calm - N/A   Overcast
12:35 PM 52.0 °F 50.5 °F 95% 29.85 in 1.8 mi North 3.5 mph - N/A   Light Drizzle
12:55 PM 52.2 °F 50.7 °F 95% 29.85 in 2.5 mi WNW 5.8 mph - N/A Rain Rain
1:15 PM 52.0 °F 50.5 °F 95% 29.86 in 2.5 mi WNW 6.9 mph - N/A Rain Rain
1:35 PM 52.2 °F 50.7 °F 95% 29.86 in 5.0 mi WNW 5.8 mph - N/A Rain Rain
1:55 PM 52.0 °F 50.0 °F 93% 29.85 in 3.0 mi NW 4.6 mph - N/A Rain Rain
2:15 PM 51.8 °F 49.6 °F 92% 29.85 in 7.0 mi WNW 4.6 mph - N/A Rain Light Rain
2:35 PM 52.7 °F 50.4 °F 92% 29.85 in 10.0 mi WNW 6.9 mph - N/A   Overcast
2:55 PM 52.0 °F 48.7 °F 89% 29.84 in 3.0 mi WNW 5.8 mph - N/A Rain Heavy Rain
3:15 PM 52.2 °F 49.6 °F 91% 29.84 in 10.0 mi WNW 6.9 mph - N/A Rain Light Rain
3:35 PM 52.2 °F 49.6 °F 91% 29.85 in 10.0 mi WNW 5.8 mph - N/A Rain Light Rain
3:55 PM 52.0 °F 49.1 °F 90% 29.85 in 10.0 mi West 4.6 mph - N/A Rain Light Rain
4:15 PM 52.7 °F 50.0 °F 91% 29.86 in 10.0 mi WNW 8.1 mph - N/A   Overcast
4:35 PM 52.7 °F 48.9 °F 87% 29.86 in 10.0 mi West 6.9 mph - N/A   Overcast
4:55 PM 52.2 °F 48.2 °F 86% 29.87 in 10.0 mi West 5.8 mph 10.4 mph N/A   Overcast
5:15 PM 52.7 °F 49.1 °F 88% 29.88 in 10.0 mi West 6.9 mph - N/A   Overcast
5:35 PM 53.1 °F 48.6 °F 85% 29.89 in 10.0 mi West 6.9 mph - N/A   Scattered Clouds
5:55 PM 52.7 °F 48.6 °F 86% 29.89 in 10.0 mi WSW 6.9 mph - N/A   Mostly Cloudy
6:15 PM 52.3 °F 48.4 °F 86% 29.89 in 10.0 mi WSW 5.8 mph - N/A   Overcast
6:35 PM 52.0 °F 48.6 °F 88% 29.91 in 10.0 mi SW 3.5 mph - N/A   Overcast
6:55 PM 51.8 °F 48.6 °F 89% 29.91 in 10.0 mi Calm Calm - N/A   Overcast
7:15 PM 51.8 °F 48.7 °F 89% 29.92 in 10.0 mi SSW 3.5 mph - N/A   Overcast
7:35 PM 51.8 °F 48.7 °F 89% 29.93 in 10.0 mi SSW 3.5 mph - N/A   Overcast
7:55 PM 52.0 °F 48.4 °F 88% 29.94 in 10.0 mi WSW 5.8 mph - N/A   Overcast
8:15 PM 52.0 °F 48.4 °F 88% 29.95 in 10.0 mi SW 5.8 mph - N/A   Overcast
8:35 PM 51.8 °F 48.2 °F 88% 29.95 in 10.0 mi SW 3.5 mph - N/A   Overcast
8:55 PM 51.8 °F 47.8 °F 86% 29.95 in 10.0 mi SSW 3.5 mph - N/A   Overcast
9:15 PM 51.8 °F 47.7 °F 86% 29.96 in 10.0 mi SW 3.5 mph - N/A   Overcast
9:35 PM 51.4 °F 47.7 °F 87% 29.97 in 10.0 mi SSW 3.5 mph - N/A   Overcast
9:55 PM 51.3 °F 47.7 °F 87% 29.97 in 10.0 mi SSW 3.5 mph - N/A   Overcast
10:15 PM 51.3 °F 47.8 °F 88% 29.98 in 10.0 mi SW 4.6 mph - N/A   Overcast
10:35 PM 51.1 °F 47.7 °F 88% 29.98 in 10.0 mi SW 3.5 mph - N/A   Overcast
10:55 PM 51.3 °F 47.7 °F 87% 29.98 in 10.0 mi SW 4.6 mph - N/A   Overcast
11:15 PM 51.4 °F 47.3 °F 86% 29.99 in 10.0 mi WSW 6.9 mph - N/A   Overcast
11:35 PM 50.9 °F 47.3 °F 87% 29.98 in 10.0 mi West 4.6 mph - N/A   Overcast
11:55 PM 50.9 °F 47.1 °F 87% 29.99 in 10.0 mi WSW 5.8 mph - N/A   Overcast